Regional Weather Roundup
Issued by NWS Huntsville, AL

Home | Current Version | Previous Version | Text Only | Print | Product List | Glossary On
Versions: 1 2 3 4 5 6 7 8 9 10 11 12 13 14 15 16 17 18 19 20 21 22 23 24 25 26 27
000
ASUS44 KHUN 250010
RWRHUN

WEATHER ROUNDUP FOR THE TENNESSEE VALLEY
NATIONAL WEATHER SERVICE HUNTSVILLE AL
600 PM CST SAT FEB 24 2018

ALZ001>004-250100-
NORTHWEST ALABAMA

CITY           SKY/WX    TMP DP  RH WIND       PRES   REMARKS
SHOALS AIRPORT MOCLDY    73  61  65 S15       29.88F
6HR MIN TEMP:  73; 6HR MAX TEMP:  79;

$$

ALZ005>007-016-250100-
NORTH CENTRAL ALABAMA

CITY           SKY/WX    TMP DP  RH WIND       PRES   REMARKS
DECATUR AP     FAIR      68  62  81 S13       29.95S
6HR MIN TEMP:  68; 6HR MAX TEMP:  77;

HUNTSVILLE AP  MOCLDY    68  63  84 S10       29.95F
6HR MIN TEMP:  68; 6HR MAX TEMP:  76;

MERIDIANVILLE  CLOUDY    68  61  79 S10       29.95F
REDSTONE ARSN  MOCLDY    66  62  87 S7        29.94F
VINEMONT AP    FAIR      63  62  95 S3        29.99S
$$

ALZ008>010-250100-
NORTHEAST ALABAMA

CITY           SKY/WX    TMP DP  RH WIND       PRES   REMARKS
ALBERTVILLE    CLOUDY    63  63 100 SE6       29.98F
FORT PAYNE     CLOUDY    72  54  53 CALM      29.99S
SCOTTSBORO AP  LGT RAIN  66  66 100 S6        29.98F
$$

TNZ076-096-097-250100-
SOUTHEASTERN MIDDLE TENNESSEE

CITY           SKY/WX    TMP DP  RH WIND       PRES   REMARKS
TULLAHOMA      CLOUDY    66  61  82 S12G18    29.94S
WINCHESTER     CLOUDY    66  61  82 S14       29.97F
$$

...SURROUNDING SITES...

CITY           SKY/WX    TMP DP  RH WIND       PRES   REMARKS
ATLANTA        MOCLDY    75  58  55 S10       30.04S
ANNISTON       MOCLDY    74  59  59 S7        30.00F
BIRMINGHAM     MOCLDY    72  63  73 S7        30.00S
CHATTANOOGA    MOCLDY    74  56  53 S8        29.98R
CORINTH        FAIR      73  63  68 S10       29.82S
DALTON         FAIR      72  55  56 S5        30.02R
GADSDEN        MOCLDY    74  62  66 S5        29.99R
GOLDEN TRNGL   FAIR      74  66  76 S10       29.91S
HALEYVILLE     FAIR      68  66  93 S9        29.96F
JACKSON TN     MOCLDY    73  64  73 S13G21    29.77F
MEMPHIS        CLOUDY    72  65  78 S17G24    29.77R
NASHVILLE      CLOUDY    73  61  65 S20G26    29.86F
OXFORD MS      FAIR      73  63  68 S10G16    29.84R
ROME           FAIR      74  58  57 S6        30.00S
SAVANNAH       PTCLDY    73  63  68 S12G23    29.82F
SELMER         PTCLDY    73  63  68 S12G17    29.80F
TUPELO         FAIR      74  63  68 SE16G23   29.84F
TUSCALOOSA     MOCLDY    71  69  93 S10       29.96S
$$

...GULF COAST WEATHER...

CITY           SKY/WX    TMP DP  RH WIND       PRES   REMARKS
GULFPORT       FAIR      75  70  84 S8        30.02R
PASCAGOULA     CLOUDY    75  67  76 S8        30.03R
MOBILE         CLOUDY    75  67  76 S13       30.05R
GULF SHORES    CLOUDY    72  71  97 SE9G16    30.05S
DESTIN         MOCLDY    73  66  78 SE9       30.07S
PANAMA CITY    FAIR      71  67  88 SE15      30.09S
APPALACHICOLA  MOCLDY    70  70 100 S7        30.10F
$$





USA.gov is the U.S. government's official web portal to all federal, state and local government web resources and services.